Preview of NWS' New Version of Forecast
This preview is not operational and should not be used for support decisions.

Regional Weather Roundup (RWR)

Issued by National Weather Service (NWS)

                            
000
ASUS46 KSEW 151710
RWRWA 

WASHINGTON REGIONAL WEATHER ROUNDUP
NATIONAL WEATHER SERVICE SEATTLE WA
900 AM PST FRI FEB 15 2019

NOTE:"FAIR" INDICATES FEW OR NO CLOUDS BELOW 12,000 FEET WITH NO 
SIGNIFICANT WEATHER AND/OR OBSTRUCTIONS TO VISIBILITY.

WAZ507-509-555>559-151800-
SEATTLE, TACOMA, EVERETT, AND VICINITY
  
CITY           SKY/WX    TMP DP  RH WIND       PRES   REMARKS
EVERETT        CLOUDY    40  34  79 SE8       29.56R                  
BOEING FIELD   PTSUNNY   38  33  82 SE6       29.57R                  
RENTON         PTSUNNY   38  33  82 CALM      29.57R                  
SEATAC AIRPORT PTSUNNY   40  34  79 S3        29.56R                  
JBLM-MCCHORD   PTSUNNY   38  38 100 SW5       29.57R                  
PUYALLUP       PTSUNNY   41  36  81 CALM      29.56R                  
BREMERTON      CLOUDY    37  35  92 SW8       29.56R                  
JBLM-FT LEWIS  SUNNY     40  40  99 S10       29.56R                  
TACOMA NARROWS CLOUDY    41  35  79 S10       29.56R                  
$$
 
WAZ001-503-506-510-514-515-151800-
NORTH INTERIOR
  
CITY           SKY/WX    TMP DP  RH WIND       PRES   REMARKS
BELLINGHAM     CLOUDY    36  31  82 N7        29.53R                  
FRIDAY HARBOR  CLOUDY    43  35  73 S6        29.52R                  
EASTSOUND      CLOUDY    43  37  81 S12G18    29.50R                  
PORT ANGELES   CLOUDY    36  34  92 CALM      29.51R                  
EDIZ HOOK      CLOUDY    39  36  88 W8        29.51R                  
PORT TOWNSEND  CLOUDY    41  37  87 SW7G16    29.51R                  
NAS WHIDBEY    CLOUDY    46  36  68 S16G22    29.57R                  
ARLINGTON      PTSUNNY   40  34  79 SE9       29.56R                  
BURLINGTON     MOSUNNY   43  36  75 SE7G14    29.54R                  
$$
 
WAZ020-022-039-040-504-511-512-151800-
SOUTHWEST INTERIOR
  
CITY           SKY/WX    TMP DP  RH WIND       PRES   REMARKS
SHELTON        CLOUDY    35  34  96 CALM      29.54R                  
OLYMPIA        PTSUNNY   39  34  82 S13       29.56R                  
CHEHALIS       PTSUNNY   43  39  87 S13       29.58R                  
KELSO          LGT RAIN  42  38  85 S12G18    29.61R                  
VANCOUVER      CLOUDY    40  35  83 SE7       29.63R                  
SCAPPOOSE, OR  LGT RAIN  43  37  79 S8        29.62R                  
PORTLAND, OR   CLOUDY    40  35  83 E7        29.64R                  
$$
 
WAZ021-516-517-151800-
WASHINGTON COAST
  
CITY           SKY/WX    TMP DP  RH WIND       PRES   REMARKS
FORKS          CLOUDY    38  30  73 SE5       29.50R                  
HOQUIAM        CLOUDY    41  39  93 E13       29.54R                  
ASTORIA, OR    LGT RAIN  40  40 100 SE5       29.55R                  
$$
 
WAZ019-023-024-040-567>569-151800-
CASCADE MOUNTAINS AND COLUMBIA GORGE
  
CITY           SKY/WX    TMP DP  RH WIND       PRES   REMARKS
STAMPEDE PASS  CLOUDY    24  21  88 E5        29.48R FOG              
TROUTDALE, OR  CLOUDY    36  32  85 E8        29.65R                  
HOOD RIVER, OR CLOUDY    28  28 100 CALM      29.66R                  
THE DALLES, OR CLOUDY    27  23  85 SE5       29.68R                  
$$

WAZ026-027-041>044-520-521-151800-
EAST SLOPES
  
CITY           SKY/WX    TMP DP  RH WIND       PRES   REMARKS
OMAK           LGT SNOW  25  22  88 E3        29.62R FOG              
WENATCHEE      CLOUDY    25  24  96 CALM      29.61R FOG              
ELLENSBURG     CLOUDY    30  25  81 W3        29.58R                  
YAKIMA         PTSUNNY   27  25  92 S3        29.62R FOG              
SUNNYSIDE ARPT PTSUNNY   25  25  99 S3        29.65  FOG              
YAKIMA TC      CLOUDY    29  25  85 CALM      29.59R                  
$$

WAZ028-034-035-151800-
COLUMBIA BASIN
  
CITY           SKY/WX    TMP DP  RH WIND       PRES   REMARKS
EPHRATA        LGT SNOW  29  28  96 N5        29.60R FOG              
MOSES LAKE     LGT SNOW  29  28  96 N5        29.61R FOG              
PASCO          CLOUDY    24  23  96 CALM      29.67R FOG              
RICHLAND ARPT  CLOUDY    29  28  96 MISG      29.67  FOG              
HERMISTON, OR  CLOUDY    31  27  85 CALM      29.65R                  
$$

WAZ036>038-151800-
NORTHEAST WASHINGTON
  
CITY           SKY/WX    TMP DP  RH WIND       PRES   REMARKS
SPOKANE GEIGER LGT SNOW  30  27  88 N5        29.54R VSB 3/4          
SPOKANE FELTS  CLOUDY    32  29  88 CALM      29.56R                  
FAIRCHILD AFB  LGT SNOW  28  28 100 N5        29.53R FOG              
COEURDALENE,ID CLOUDY    30  28  92 NE6       29.55R                  
DEER PARK      CLOUDY    31  28  89 N6        29.56R                  
$$

WAZ029>033-151800-
SOUTHEAST WASHINGTON
  
CITY           SKY/WX    TMP DP  RH WIND       PRES   REMARKS
PULLMAN        SNOW      33  32  96 E10       29.54R VSB 1/2 WCI  25  
LEWISTON, ID   CLOUDY    34  32  92 S7        29.57R                  
WALLA WALLA    CLOUDY    30  28  92 SE3       29.63R FOG              
PENDLETON, OR  FOG       29  28  96 E3        29.60R VSB 1/4          
$$